Terminal Aerodrome Forecast
Issued by NWS Miami, FL

Home | Current Version | Previous Version | Text Only | Print | Product List | Glossary On
Versions: 1 2 3 4 5 6 7 8 9 10 11 12 13 14 15 16 17 18 19 20 21 22 23 24 25 26 27 28
000
FTUS42 KMFL 220401 AAB
TAFFLL
TAF AMD
KFLL 220401Z 2204/2224 17008KT P6SM FEW050 SCT250
     FM221300 19015G25KT P6SM FEW025 SCT050
     FM221700 20025G35KT P6SM VCSH SCT025 BKN050=

USA.gov is the U.S. government's official web portal to all federal, state and local government web resources and services.